AirNav   Air Wisconsin pilot careers
 
 683 users online  

8N1 Grimes Airport
Bethel, Pennsylvania, USA

GOING TO BETHEL?


FAA INFORMATION EFFECTIVE 11 OCTOBER 2018

Location

FAA Identifier: 8N1
Lat/Long: 40-29-05.3310N / 076-15-48.8230W
40-29.088850N / 076-15.813717W
40.4848142 / -76.2635619
(estimated)
Elevation: 582 ft. / 177 m (estimated)
Variation: 11W (1985)
From city: 2 miles E of BETHEL, PA
Time zone: UTC -4 (UTC -5 during Standard Time)
Zip code: 19507

Airport Operations

Airport use: Open to the public
Control tower: no
ARTCC: NEW YORK CENTER
FSS: WILLIAMSPORT FLIGHT SERVICE STATION
NOTAMs facility: IPT (NOTAM-D service available)
Attendance: IREG
Wind indicator: yes
Segmented circle: no

Airport Communications

CTAF/UNICOM: 122.8
WX AWOS-3 at ZER (14 nm N): 127.575 (570-544-2778)
WX ASOS at MUI (14 nm W): 124.175 (717-861-6493)
WX ASOS at RDG (15 nm SE): PHONE 610-372-9863

Nearby radio navigation aids

VOR radial/distance  VOR name  Freq  Var
RAVr116/15.9RAVINE VORTAC114.6011W
LRPr012/21.9LANCASTER VOR/DME117.3009W
ETXr267/27.1EAST TEXAS VOR/DME110.2009W
SEGr131/33.7SELINSGROVE VOR/DME110.4008W
PTWr305/35.8POTTSTOWN VORTAC116.5009W
MIPr160/37.1MILTON VORTAC109.2009W
HARr083/38.4HARRISBURG VORTAC112.5010W
FJCr258/39.6ALLENTOWN VORTAC117.5010W

 
NDB name  Hdg/Dist  Freq  Var  ID
BELLGROVE087/13.532810WBZJ -... --.. .---

Airport Services

Parking: tiedowns
Bottled oxygen: NONE
Bulk oxygen: NONE

Runway Information

Runway 11/29

Dimensions: 2720 x 100 ft. / 829 x 30 m
Surface: turf, in good condition
FIRST 700 FT OF RY ON W END UNUSBL IN EARLY SPRING DUE TO WET CONDS.
Runway edge markings: 11/29 MARKED WITH WHITE DISCS
RUNWAY 11  RUNWAY 29
Gradient: 0.5%0.5%
Traffic pattern: leftleft
Displaced threshold: 250 ft.
RWY 11/29 DSPLCD THRS MARKED BY RED GROUND PAVERS
270 ft.
Obstructions: 14 ft. road, 66 ft. from runway, 51 ft. right of centerline, 4:1 slope to clear
RY 11 APCH SLOPE 22:1 TO DSPLCD THLD.
34 ft. tree, 92 ft. from runway, 132 ft. right of centerline, 2:1 slope to clear
RY 29 APCH SLOPE 10:1 TO DSPLCD THR.

Airport Ownership and Management from official FAA records

Ownership: Privately-owned
Owner: PAUL D DOUGHERTY JR
371 AIRPORT RD
BETHEL, PA 19507
Phone 717-933-9566
Manager: PAUL D DOUGHERTY JR
371 AIRPORT RD
BETHEL, PA 19507
Phone 717-933-9566

Airport Operational Statistics

Aircraft based on the field: 32
Single engine airplanes: 32
    
Aircraft operations: avg 30/week *
65% local general aviation
32% transient general aviation
3% military
* for 12-month period ending 12 July 2018

Additional Remarks

FOR CD CTC RDG ATCT, WHEN CLSD CTC MDT APCH AT 800-932-0712.
AD CLSD SS-SR

Instrument Procedures

There are no published instrument procedures at 8N1.

Some nearby airports with instrument procedures:

9D4 - Deck Airport (9 nm S)
08N - Keller Brothers Airport (12 nm S)
KZER - Schuylkill County/Joe Zerbey Airport (14 nm N)
74N - Bendigo Airport (14 nm W)
KMUI - Muir Army Airfield (Fort Indiantown Gap) (14 nm W)
KRDG - Reading Regional Airport/Carl A Spaatz Field (15 nm SE)
58N - Reigle Field Airport (19 nm SW)
 
Loc | Ops | Rwys | IFR | FBO | Links
Com | Nav | Svcs | Stats | Notes


 
Area around 8N1 (Grimes Airport)
 
Road maps at: MapQuest Bing Google
 
Aerial photo
WARNING: Photo may not be current or correct
Aerial photo of 8N1 (Grimes Airport)
Photo taken 07-Sep-2015
looking west from 1000 AGL.

Do you have a better or more recent aerial photo of Grimes Airport that you would like to share? If so, please send us your photo.

 
Sectional chart

 
Airport distance calculator
Flying to Grimes Airport? Find the distance to fly.

From to 8N1

Sunrise and sunset
Times for 23-Oct-2018
 Local
(UTC-4)
 Zulu
(UTC)
Morning civil twilight06:5810:58
Sunrise07:2611:26
Sunset18:1322:13
Evening civil twilight18:4122:41

Current date and time
Zulu (UTC)  23-Oct-2018 04:00:56
Local (UTC-4)  23-Oct-2018 00:00:56
 
METAR
KMUI 
14nm W 
230256Z AUTO 00000KT 10SM OVC075 06/04 A3013 RMK AO2 SLP209 T00550035 50001 $
KRDG 
15nm SE 
230354Z AUTO 00000KT 10SM OVC080 08/06 A3014 RMK AO2 SLP211 T00780056
KLNS 
22nm S 
230353Z AUTO 06004KT 10SM OVC080 08/06 A3014 RMK AO2 SLP207 T00780056
KMDT 
29nm SW 
230256Z 00000KT 10SM OVC075 09/05 A3013 RMK AO2 SLP204 T00940050 57001
TAF
KMUI 
14nm W 
221900Z 2219/2401 20009KT 9999 SCT080 BKN250 QNH3013INS BECMG 2301/2302 18006KT 9999 BKN035 OVC060 QNH3001INS BECMG 2314/2315 26015G25KT 9999 SCT045 QNH2998INS BECMG 2322/2323 32009KT 9999 SCT050 QNH3015INS TX13/2219Z TN12/2319Z LAST NO AMDS AFT 2304 NEXT 2311
KRDG 
15nm SE 
222128Z 2221/2318 20008KT P6SM SCT250 FM222300 19006KT P6SM SCT250 FM230500 VRB02KT P6SM BKN070 FM231500 23007KT P6SM SCT200
NOTAMs
Click for the latest NOTAMs
NOTAMs are issued by the DoD/FAA and will open in a separate window not controlled by AirNav.

 

 
 

Things to do: Attractions on or near the airport

  
 Business Name 
 
 Contact 
 
 Services / Description 
 
Distance
 
Comments
  
Golden Age Air Museum 717-933-9566
no information available

If you are affiliated with Golden Age Air Museum and would like to show here your services, contact info, web link, logo, and more, click here
on airport  
   write
 

Would you like to see your business listed on this page?

 If your business provides an interesting product or service to pilots, flight crews, aircraft, or users of the Grimes Airport, you should consider listing it here.  To start the listing process, click on the button below
 
Add a business
 

Other Pages about Grimes Airport

Update a link
 
Copyright © AirNav, LLC. All rights reserved. Privacy Policy  Contact